GFSCGP_con_lsi_150.txt.gz
Lid_Strength_Index
12 16 17 16 15 14 15 16 16 16 13 15 15 15 13 13 10 11 11 11 10 10 9 9 9 9 10 10 10 10 10 9 9 10 11 10 10 9 8 7 7 6 5 4
14 16 13 13 13 14 14 16 16 15 13 14 16 16 14 13 11 10 11 11 11 10 10 9 9 10 10 10 10 10 10 10 10 10 10 10 10 9 9 8 7 6 5 4
15 12 11 12 13 14 15 16 16 16 15 15 16 17 15 11 10 10 10 10 10 11 11 10 10 11 12 11 11 11 11 10 10 10 10 10 9 9 9 8 7 6 5 5
14 11 12 13 13 13 16 13 14 15 17 19 16 21 16 12 12 11 12 12 11 11 10 10 11 11 12 12 11 11 11 10 10 10 10 10 10 10 9 8 6 5 5 5
14 13 13 13 13 13 15 13 14 15 18 19 18 20 18 12 13 13 12 12 12 11 11 11 11 11 12 12 12 11 11 10 10 10 9 9 10 9 9 8 8 7 5 4
13 11 12 13 12 11 12 14 15 16 17 21 17 18 19 17 13 13 12 11 11 11 11 11 11 11 12 12 12 12 11 10 10 10 9 9 10 10 9 8 8 7 5 4
13 13 11 11 15 14 14 16 20 21 21 21 15 17 16 13 12 12 12 12 12 12 12 12 13 13 13 13 12 12 11 11 10 9 9 9 9 9 9 9 8 7 6 4
16 17 12 12 14 15 16 15 20 22 21 19 14 18 16 12 11 11 11 11 11 12 12 13 13 14 13 13 13 12 12 11 10 9 9 9 9 9 9 9 8 7 5 4
16 15 12 12 12 12 15 17 14 17 17 19 17 15 13 12 12 12 12 12 12 12 13 13 13 13 13 13 13 13 12 11 10 9 9 9 9 9 9 9 8 6 4 3
12 16 12 13 13 13 14 12 17 17 21 22 19 17 17 15 14 13 13 13 12 12 12 12 13 13 13 13 13 12 12 11 10 10 9 9 10 9 9 9 9 7 5 4
11 13 14 13 15 16 16 16 15 15 18 21 20 18 14 14 13 13 13 12 13 13 12 12 13 13 13 13 13 13 12 12 11 10 10 10 10 10 9 10 10 9 6 5
11 13 16 16 12 13 14 15 14 19 18 17 18 19 13 13 13 12 12 12 12 12 12 12 13 13 13 13 13 13 12 12 11 10 10 10 10 11 10 11 10 9 9 7
10 14 18 16 15 14 16 14 14 13 14 17 19 19 12 12 12 12 13 12 12 12 12 12 14 16 14 14 13 13 12 12 11 11 10 10 11 12 11 10 11 10 10 8
8 13 15 17 16 14 16 15 14 15 17 17 17 16 14 13 13 12 12 12 12 12 12 13 15 16 16 14 14 13 12 12 12 11 10 11 11 12 12 11 11 11 11 10
11 14 13 13 13 13 14 14 14 15 15 17 15 14 14 13 13 13 12 12 12 12 12 13 14 16 17 16 14 13 12 12 12 11 11 10 11 12 12 12 12 11 11 11
10 14 13 14 12 12 13 13 13 13 14 14 13 14 11 12 12 12 12 12 13 13 12 12 12 13 15 14 13 13 13 13 12 11 11 10 11 12 13 13 13 12 12 12
12 12 14 16 12 13 16 15 13 13 13 13 15 13 12 12 12 13 13 13 13 12 12 12 13 13 13 14 13 13 13 13 13 12 12 11 11 12 13 14 14 14 13 12
13 13 13 16 14 20 13 10 11 13 12 11 12 12 11 11 12 12 13 13 13 12 12 13 13 13 14 13 13 13 13 13 13 12 12 11 11 12 13 14 15 15 14 13
10 12 15 17 17 14 13 11 12 13 14 11 12 12 11 12 12 15 12 12 12 12 12 13 13 13 14 14 13 13 14 14 14 13 13 12 12 12 14 14 16 16 16 15
10 10 13 15 18 21 15 11 9 9 16 11 11 11 12 12 16 16 12 11 12 12 13 13 13 13 14 14 13 14 15 14 14 13 13 12 11 12 14 15 15 16 16 16
14 13 15 16 17 16 11 10 8 15 16 11 10 11 12 15 14 12 11 12 12 13 13 13 13 14 14 13 13 15 15 15 13 12 12 13 12 12 13 15 15 16 16 16
14 15 16 15 16 18 10 10 13 12 10 11 10 11 12 11 11 12 12 13 13 14 14 14 15 15 14 14 14 15 15 14 13 12 12 13 12 12 13 15 15 15 16 16
15 14 15 13 15 10 9 9 9 8 10 10 10 10 11 12 12 12 13 14 14 14 15 14 15 15 15 14 13 15 14 12 12 11 12 11 12 12 12 15 15 16 16 16
12 10 13 12 10 10 9 8 7 7 9 9 9 10 11 12 12 13 14 15 15 15 15 14 15 16 15 13 13 13 12 11 11 11 11 11 12 12 13 14 15 16 17 16
11 10 11 11 10 9 9 9 8 8 8 9 9 10 11 12 13 14 14 15 15 15 15 14 15 14 13 13 12 12 11 10 11 12 11 11 11 12 13 14 15 16 16 15
10 12 13 13 9 9 9 8 8 9 10 11 11 12 12 11 13 13 15 15 15 15 14 14 14 14 14 13 13 12 11 10 11 12 12 12 12 13 13 14 16 15 15 15

GFSCGP_con_lsi_153.txt.gz
Lid_Strength_Index
13 15 17 16 15 15 15 17 18 16 15 16 16 17 16 13 11 12 12 11 11 11 10 10 10 11 11 11 11 11 11 11 10 11 11 11 11 10 9 9 8 7 6 6
14 16 12 14 14 14 15 16 17 16 15 16 17 16 15 13 12 11 12 12 12 11 11 10 11 11 12 12 12 11 11 11 11 11 11 11 11 10 9 9 8 7 6 6
15 13 11 12 14 15 15 16 17 17 17 17 18 18 16 12 11 11 11 11 11 12 12 11 11 12 12 13 13 12 12 12 11 11 11 11 10 10 9 9 8 7 6 5
15 12 13 13 14 14 16 14 14 16 18 20 17 22 18 14 13 12 12 12 12 12 11 12 12 12 13 13 13 13 12 12 11 11 11 11 11 11 10 9 8 7 7 6
15 14 14 15 14 13 14 13 15 16 19 20 19 21 19 13 15 13 13 12 12 12 12 12 12 13 13 13 13 14 13 12 11 11 11 11 11 10 9 8 8 8 7 6
12 11 12 13 13 12 13 15 15 17 19 21 19 18 20 16 14 13 12 12 12 12 12 12 12 13 14 14 14 14 14 13 12 11 11 11 11 10 10 9 9 9 7 6
13 13 12 12 15 14 15 17 20 20 21 21 17 18 15 14 12 12 12 13 12 12 13 13 13 14 14 14 14 14 13 13 12 11 11 11 11 10 9 9 9 9 9 8
15 17 12 11 12 15 16 16 19 22 22 20 16 20 17 13 12 11 11 12 12 13 13 13 13 14 14 14 14 14 14 13 12 12 11 11 10 10 9 8 9 9 9 9
16 15 11 11 12 12 16 17 14 18 18 20 19 17 14 13 13 12 13 13 13 14 13 13 13 14 14 14 14 14 14 13 13 12 12 11 10 9 9 9 9 9 9 9
12 16 12 12 11 13 14 13 18 18 21 22 20 19 18 16 15 13 14 14 13 13 13 13 13 14 14 14 14 14 14 14 13 12 12 11 10 9 9 9 10 10 9 9
10 13 15 13 15 16 16 16 15 15 17 20 22 20 14 14 14 14 14 14 14 14 13 14 14 14 14 14 14 14 14 14 13 13 12 10 10 10 10 10 10 10 9 9
10 12 15 15 12 12 14 14 14 18 18 17 17 18 13 13 13 14 13 13 13 13 13 14 14 15 14 15 15 15 14 14 13 13 12 11 10 10 11 10 10 10 10 9
10 13 17 16 14 13 15 15 13 13 14 17 19 18 13 13 13 13 14 13 13 13 13 14 15 17 16 15 15 15 14 14 13 13 12 11 11 11 11 11 10 11 11 10
8 12 14 17 15 14 15 14 13 14 17 18 17 16 15 13 13 13 13 13 13 13 13 14 16 18 18 17 16 15 14 14 14 13 12 12 11 12 12 11 11 11 12 11
10 14 14 13 11 11 13 13 13 15 14 16 15 14 13 13 12 12 12 13 13 13 14 14 16 20 20 18 17 15 14 14 14 14 13 13 11 12 12 12 12 12 12 13
9 14 13 14 12 12 13 12 12 13 13 13 13 14 11 10 11 12 12 12 13 14 14 14 15 16 17 16 15 15 14 14 14 14 13 12 11 12 12 13 12 12 13 14
11 13 14 17 12 13 16 13 12 12 11 12 15 13 11 12 12 12 12 13 13 13 14 15 16 16 16 16 15 15 15 14 14 14 13 12 12 12 13 13 13 13 14 14
12 13 13 16 15 20 13 10 10 11 11 10 11 11 11 11 11 12 12 13 13 14 14 15 16 16 16 15 15 15 15 15 14 14 13 13 12 13 14 14 14 14 14 14
9 12 15 17 17 14 13 12 11 12 12 9 11 11 11 12 13 14 12 12 13 14 15 15 15 15 15 15 15 15 15 15 14 14 14 13 13 13 14 15 15 14 14 14
9 10 13 15 18 21 14 11 9 9 15 10 10 11 13 12 16 15 14 14 14 14 15 15 15 15 15 15 14 15 16 15 15 14 13 13 13 13 14 15 15 14 14 14
14 13 15 16 17 15 11 10 9 15 15 10 9 10 12 15 14 14 14 14 14 14 15 14 15 16 16 15 14 16 16 15 14 13 13 13 12 13 13 14 14 14 14 14
14 15 15 15 17 18 10 10 13 11 10 10 10 10 13 13 14 14 14 15 15 15 15 15 16 16 16 15 14 16 16 14 13 12 13 13 12 11 11 13 13 13 15 15
15 13 14 13 15 10 9 10 9 8 10 10 10 10 11 13 14 14 15 15 16 16 16 16 16 16 15 15 14 15 14 12 11 11 12 11 10 11 11 12 13 14 15 16
12 10 14 12 11 10 9 9 8 9 10 9 10 10 11 14 14 15 15 16 16 16 16 16 16 16 15 14 13 13 12 10 11 11 11 11 11 11 11 12 13 14 16 16
13 11 11 11 10 10 9 9 9 9 9 10 10 10 12 13 14 15 16 16 15 15 16 15 15 15 15 13 13 13 11 11 11 11 11 11 11 12 12 12 14 15 15 15
11 13 12 14 10 10 10 9 9 10 10 10 11 12 12 13 15 15 16 15 15 15 15 15 15 14 14 14 14 13 12 11 11 12 12 12 12 12 12 13 14 13 14 15

GFSCGP_con_lsi_156.txt.gz
Lid_Strength_Index
14 16 17 16 15 15 15 17 17 17 15 17 17 17 17 13 13 13 13 13 13 12 11 11 11 11 12 12 12 12 12 12 11 12 12 12 11 11 10 9 9 8 8 7
15 17 14 14 14 15 16 17 17 15 15 16 17 17 17 13 13 12 12 13 13 12 11 11 12 12 13 13 13 13 13 12 12 12 12 12 11 11 10 9 9 8 8 7
16 14 12 14 15 15 16 17 17 16 16 17 18 19 16 14 13 12 12 12 12 12 12 12 12 13 14 14 14 13 13 13 12 12 12 12 11 10 10 10 9 8 8 7
15 12 13 14 14 14 17 13 14 16 18 20 18 22 19 15 14 13 13 13 13 13 13 13 13 14 14 14 14 14 13 13 12 12 12 12 12 12 10 9 8 9 8 7
14 14 14 15 14 13 15 13 14 16 18 21 20 21 20 15 16 14 14 14 13 13 13 13 14 14 14 14 14 15 14 13 13 12 12 12 13 12 11 9 9 9 8 7
12 12 13 13 13 13 13 15 16 17 18 21 18 19 19 17 16 14 14 13 13 13 13 13 13 14 15 14 15 15 14 14 13 12 12 12 13 13 11 11 10 9 9 7
13 13 12 11 14 13 14 16 20 21 22 21 18 19 17 16 14 13 13 13 13 13 13 14 15 15 15 15 15 14 14 14 13 13 12 12 12 12 11 11 10 10 10 8
15 16 13 12 12 14 15 15 20 22 22 21 18 21 19 14 13 12 12 13 13 13 13 14 15 15 15 15 15 15 14 14 14 13 13 12 11 11 11 11 10 11 9 9
15 15 11 11 11 11 15 17 14 17 17 20 19 18 15 14 14 14 14 13 14 14 14 14 14 15 15 15 15 15 15 15 14 13 13 13 11 11 11 11 11 10 9 9
12 15 12 12 11 12 13 13 17 17 20 21 20 19 18 16 15 14 14 14 14 14 14 14 15 15 15 15 15 15 15 15 14 13 13 12 11 11 11 11 12 11 10 9
10 13 13 12 14 14 14 15 14 14 16 19 20 19 15 14 14 15 14 13 14 14 15 15 15 16 16 16 16 16 16 15 14 14 14 13 12 11 12 12 12 11 10 10
9 12 16 13 12 11 13 14 13 16 17 17 17 17 13 13 12 13 13 13 14 14 14 15 16 16 16 16 16 16 16 15 15 14 14 13 13 12 13 13 12 12 11 10
10 14 17 16 12 11 14 14 13 13 14 16 18 17 12 12 12 12 13 13 13 14 14 15 17 19 18 17 17 16 16 15 15 15 14 14 13 13 13 13 13 12 12 11
8 12 15 18 15 13 14 12 13 13 16 16 16 16 14 13 13 12 12 12 13 13 14 15 18 20 20 18 17 17 16 16 15 15 15 14 14 13 13 13 13 13 12 12
10 14 13 12 12 12 12 13 12 14 14 16 14 14 13 12 12 11 11 12 13 13 14 15 17 19 20 18 17 16 16 16 16 16 14 14 14 13 13 14 14 14 13 12
10 15 13 14 12 11 13 12 12 12 12 12 12 13 10 9 9 11 12 12 13 13 14 14 15 16 17 16 16 16 16 16 16 16 15 14 14 13 13 14 15 14 14 13
11 13 15 16 13 13 17 13 13 14 11 12 14 11 10 11 11 11 12 12 13 14 14 15 15 15 15 16 16 17 16 16 16 15 14 14 14 14 13 14 15 15 15 14
12 13 13 16 15 20 13 10 10 11 10 9 10 11 10 10 10 11 11 12 13 14 14 15 15 16 16 17 17 16 16 16 15 15 15 14 14 14 14 14 15 15 14 14
9 12 16 17 17 15 13 12 12 12 12 9 10 10 11 12 12 14 12 12 14 15 15 15 15 16 16 16 16 16 16 15 15 15 14 14 13 14 14 14 15 15 15 15
10 10 13 15 18 20 13 11 10 9 16 10 10 12 12 11 14 15 14 14 15 15 15 15 16 16 17 17 16 16 17 15 15 14 14 14 13 13 14 14 15 14 15 14
14 13 15 15 17 14 11 10 9 15 15 10 10 11 12 15 14 14 14 15 15 15 16 16 16 17 17 16 16 16 16 15 14 13 13 13 13 13 13 13 14 15 15 14
14 15 16 15 17 18 10 10 13 11 11 10 11 12 14 14 14 14 15 15 15 16 16 16 17 17 16 16 15 16 15 13 12 12 12 12 12 12 12 13 13 13 14 14
15 12 14 13 14 10 9 10 10 9 11 11 12 12 13 14 14 15 15 15 16 16 17 16 17 16 15 15 14 15 13 12 11 11 11 11 10 10 10 12 13 14 14 14
11 10 12 11 11 11 10 9 9 9 11 11 11 12 12 14 14 15 16 17 17 17 17 15 16 16 15 15 14 13 11 11 11 11 11 11 11 11 12 12 13 14 15 15
11 10 12 12 10 10 10 10 10 11 11 11 11 12 13 14 15 16 17 17 17 16 16 15 15 15 15 14 14 13 11 11 11 11 12 12 12 12 12 12 13 14 14 14
9 11 13 14 10 10 10 10 9 11 11 11 13 13 13 14 16 16 17 15 15 16 15 15 15 15 16 15 14 13 12 11 12 12 12 12 13 13 13 13 14 12 13 13

GFSCGP_con_lsi_159.txt.gz
Lid_Strength_Index
12 13 15 13 13 13 14 14 14 13 12 13 12 13 13 10 10 10 10 10 10 10 10 10 10 10 9 9 9 9 10 9 9 9 9 8 8 8 7 7 6 6 6 5
13 15 12 13 13 14 14 15 14 13 13 13 13 13 13 11 10 10 10 10 10 10 10 10 10 10 10 10 10 10 10 10 9 9 9 9 9 8 7 7 6 6 6 6
13 12 12 13 14 15 14 14 14 14 13 13 14 14 14 12 10 10 10 10 10 10 10 10 11 11 11 11 11 11 10 10 9 9 9 9 8 8 8 8 7 7 6 6
12 10 12 13 13 13 15 12 12 13 14 15 14 16 15 13 12 11 10 10 10 10 10 11 11 11 11 11 11 10 10 10 10 9 10 10 10 11 10 9 8 7 6 6
12 13 13 13 12 11 13 12 12 13 14 15 15 15 14 13 13 12 11 11 11 11 11 11 11 11 11 11 11 10 10 10 10 10 10 10 10 10 9 9 8 8 8 7
11 10 12 12 12 11 11 13 14 15 15 18 15 15 14 13 12 11 10 11 11 11 11 11 11 11 11 10 11 10 11 11 10 10 11 11 11 10 10 9 10 9 9 8
10 10 11 11 13 12 12 13 16 18 18 18 16 16 13 13 11 11 11 10 10 11 11 11 12 11 11 11 11 11 11 11 11 11 11 11 11 10 10 10 10 11 10 9
14 15 11 10 10 11 13 13 16 19 19 17 15 17 14 12 11 10 10 10 11 12 11 11 12 12 12 12 12 12 12 12 12 12 11 11 10 10 10 10 10 11 11 10
14 13 10 10 9 9 13 15 11 14 16 17 15 14 14 12 12 11 11 12 12 12 12 12 12 12 12 12 12 12 12 12 12 12 12 11 11 10 10 10 10 11 10 10
10 14 10 10 9 10 10 10 15 15 20 20 16 16 15 14 13 12 12 12 12 11 12 12 12 12 12 12 12 12 12 13 12 12 12 12 11 11 10 10 11 11 10 11
9 11 11 11 12 12 13 13 12 12 14 17 18 15 12 12 11 12 12 11 11 12 12 12 13 13 13 13 13 13 13 13 13 12 12 12 12 12 11 11 11 11 11 11
9 12 15 12 9 10 11 12 12 15 15 14 14 15 10 10 10 10 11 11 10 10 11 12 12 13 13 13 13 13 13 14 13 13 13 12 12 12 12 12 12 11 12 11
8 13 16 14 11 10 11 10 11 12 13 15 16 14 11 10 10 10 10 10 10 10 11 12 13 14 15 14 14 14 14 14 14 14 13 13 13 13 13 12 12 12 12 12
7 11 14 17 14 11 13 12 11 11 15 14 14 13 12 11 11 10 10 9 10 11 12 12 14 14 15 14 14 14 14 14 14 14 13 13 14 13 13 13 12 12 12 13
8 12 11 11 11 11 11 11 11 13 12 14 12 11 10 10 9 9 9 9 10 11 12 13 14 14 15 15 14 14 14 14 13 14 13 14 13 13 13 13 12 12 13 13
9 13 12 14 11 11 13 11 11 11 11 11 11 11 8 8 8 9 9 10 11 11 12 12 13 14 14 15 15 14 14 14 13 14 14 14 13 14 14 13 13 13 14 13
10 12 13 15 12 13 16 13 12 12 10 10 13 9 7 8 9 9 9 10 11 11 12 13 14 14 14 14 14 14 14 14 13 14 14 13 13 14 14 13 13 14 14 14
11 12 12 15 13 19 11 8 9 10 10 9 9 8 8 8 9 8 8 9 11 12 13 13 14 15 14 14 14 14 14 13 14 14 13 13 13 14 13 13 14 14 14 14
8 10 13 16 15 12 11 9 10 11 11 8 9 8 9 10 10 12 9 9 11 12 13 14 15 15 15 15 15 14 14 14 14 14 13 13 13 13 13 13 14 13 13 14
9 9 13 14 17 17 11 9 8 7 13 8 8 8 10 9 11 12 12 12 13 13 13 14 15 15 15 14 14 14 14 14 14 13 12 12 12 13 13 13 13 13 13 14
13 13 15 14 15 12 8 7 7 14 12 8 8 9 9 10 9 12 12 13 13 14 14 14 14 15 14 14 13 14 13 13 12 11 11 11 11 12 11 11 11 12 12 12
12 14 15 14 15 17 7 8 11 9 9 8 9 9 11 12 12 12 13 14 14 15 15 14 14 15 14 14 13 13 13 12 11 10 10 10 10 9 10 10 10 11 12 12
13 11 12 12 12 8 7 8 8 8 9 10 10 11 12 13 13 13 14 14 15 15 15 14 15 14 14 13 12 13 12 11 10 10 10 10 10 10 10 11 11 12 12 13
9 8 11 11 9 9 8 9 8 8 9 10 10 11 11 13 13 14 15 15 15 15 15 15 14 13 13 12 12 12 11 11 10 10 10 10 10 10 11 10 11 12 13 13
9 8 10 10 9 9 9 9 9 9 10 10 10 11 12 13 14 15 15 15 15 15 14 13 13 13 13 12 12 11 11 11 11 11 11 11 11 11 11 11 11 12 12 13
8 9 11 12 8 8 9 9 9 10 11 11 12 13 13 13 15 14 15 15 15 14 14 14 14 14 14 13 13 12 11 11 12 12 12 12 12 12 12 12 12 12 12 13

GFSCGP_con_lsi_162.txt.gz
Lid_Strength_Index
9 10 12 10 10 9 10 11 10 8 10 11 9 9 8 8 7 7 7 6 7 7 7 7 7 8 7 7 7 6 6 5 5 5 5 5 5 5 4 4 4 4 3 3
10 11 8 9 9 11 11 11 10 8 8 10 9 9 8 8 8 7 7 7 7 7 8 7 7 7 8 8 7 7 6 6 6 6 6 6 6 5 5 4 4 4 4 4
8 7 9 9 10 11 10 12 12 12 10 9 10 11 9 9 8 7 7 6 6 7 8 8 8 7 8 7 7 7 7 7 6 6 6 6 5 5 5 5 5 5 4 4
8 6 8 9 9 9 10 9 10 11 12 12 11 14 10 9 9 8 7 7 6 7 7 7 8 8 8 8 8 8 7 7 7 7 7 7 7 7 6 6 6 5 5 5
10 10 9 9 8 7 9 9 9 10 10 11 11 14 10 9 10 9 7 6 6 6 7 8 8 8 8 8 8 7 8 7 7 7 7 7 7 6 6 6 6 6 5 5
9 7 9 9 10 9 9 10 10 10 10 14 11 12 12 10 10 9 7 6 6 6 7 7 8 8 8 8 8 7 8 8 7 7 7 7 7 7 7 7 7 7 6 6
10 10 8 8 10 10 11 11 14 15 15 15 11 13 12 10 9 9 8 7 7 7 7 8 8 8 8 8 9 8 8 8 8 8 8 8 8 7 7 7 8 8 7 7
13 13 9 7 9 10 11 11 13 17 15 13 13 15 10 9 9 8 7 6 6 7 7 8 9 9 9 9 10 9 9 9 9 8 8 8 8 8 7 8 8 8 8 8
13 13 8 8 7 8 10 12 8 13 12 14 12 11 11 10 9 9 8 7 7 8 7 8 9 9 9 9 10 9 9 9 9 9 8 8 8 8 9 8 8 8 8 8
10 13 8 7 8 8 9 9 13 13 20 21 14 12 12 11 10 9 9 8 8 8 8 8 8 9 9 9 9 9 9 9 9 9 9 9 9 9 9 10 9 9 8 9
8 11 10 9 10 10 10 11 11 11 13 17 16 13 9 9 9 9 8 7 7 7 8 8 8 9 9 9 9 10 10 10 10 9 9 9 10 10 10 11 10 9 9 9
8 10 13 11 7 7 8 9 9 14 15 12 13 13 8 8 7 7 7 7 6 6 7 8 9 9 9 10 10 10 9 10 10 10 10 10 10 11 10 11 11 10 10 9
8 11 14 12 10 8 10 9 9 9 11 14 16 13 7 8 8 7 7 7 7 7 7 8 10 11 11 10 10 10 10 10 10 10 10 10 11 11 11 11 11 10 10 10
6 10 11 14 12 10 12 11 9 11 16 14 14 12 9 7 8 7 6 6 7 7 8 9 11 13 12 11 11 11 10 10 11 10 10 11 11 12 12 11 11 10 10 11
7 12 10 9 9 9 10 10 10 12 11 14 12 11 9 7 6 6 6 6 7 8 8 9 11 13 12 12 12 11 11 11 11 11 11 11 11 11 11 12 11 11 11 11
8 12 10 11 9 9 11 10 9 9 9 9 9 10 7 5 5 6 6 6 6 7 8 9 10 11 12 12 12 11 11 11 10 11 11 11 11 11 12 12 11 11 11 11
9 10 12 15 10 10 15 11 10 10 8 9 12 9 6 6 6 6 5 5 6 7 9 10 10 11 12 12 12 12 11 11 11 12 11 11 11 12 12 11 11 11 11 11
9 10 11 14 12 19 10 7 7 8 8 8 8 7 7 6 6 5 4 5 6 8 9 10 10 12 12 12 12 12 12 12 12 12 11 12 12 12 12 11 11 12 12 12
6 9 13 15 14 11 10 8 8 10 10 6 7 7 6 6 6 7 6 5 7 8 9 10 11 12 12 12 12 11 11 11 11 11 11 11 12 12 11 11 10 11 11 11
7 7 11 12 15 16 10 7 6 6 13 6 6 6 7 6 10 8 7 8 8 8 9 11 12 11 12 12 11 11 11 11 11 11 11 10 10 10 10 10 9 9 8 9
11 11 14 13 14 11 7 6 5 13 11 6 6 6 6 8 7 8 8 8 9 10 11 11 11 12 12 11 11 11 11 11 10 9 9 9 9 9 9 9 8 8 8 9
11 13 13 12 15 16 5 6 9 7 6 6 6 5 6 8 9 9 9 10 11 11 11 11 11 11 11 10 10 10 10 9 9 8 9 9 9 9 9 9 9 9 9 10
12 9 10 11 12 6 5 6 5 5 6 6 6 7 8 9 10 10 11 11 11 12 12 11 11 11 11 10 10 10 10 9 9 9 9 9 9 9 9 9 10 10 10 11
7 6 9 9 7 6 6 5 5 5 6 6 6 7 8 9 10 10 11 12 12 12 12 11 11 11 11 10 10 10 10 9 9 10 10 9 9 10 9 9 10 10 11 12
7 7 9 8 6 7 6 5 6 6 6 7 7 7 8 9 11 11 12 12 12 12 12 11 11 11 11 10 10 10 10 10 10 10 10 11 10 10 10 10 10 11 11 11
7 9 10 10 6 7 6 6 6 7 8 7 8 9 9 10 11 11 12 12 12 13 12 11 11 11 11 11 11 11 10 11 11 12 11 12 11 11 11 10 10 10 11 12